Location: Christian Reformed Church
(43.0975°N, 93.8113°W)
Time: 20:45:22
(UTC+00:00)

IRIDIUM 106 - Pass Details

Date: 13 December 2025
Orbit: 776 x 779 km, 86.4° (Epoch: 12 January)

Event Time Altitude Azimuth Distance (km) Brightness Sun altitude
Rises 12:20:28 0° 194° (SSW) 3,248 7.6 -13.7°
Reaches altitude 10° 12:22:51 10° 199° (SSW) 2,325 6.8 -13.3°
Maximum altitude 12:27:56 54° 276° (W) 945 4.4 -12.4°
Drops below altitude 10° 12:33:04 10° 354° (N) 2,340 6.5 -11.6°
Sets 12:35:29 0° 359° (N) 3,272 7.3 -11.1°
